[Date Prev][Date Next][Thread Prev][Thread Next] - [Date Index][Thread Index][Author Index]

MIr & ISS Keps 7-30



MIR
1 16609U 86017A   99211.41847065  .00040687  00000-0  28423-3 0  7200
2 16609  51.6595 122.3997 0005653   5.5990 354.5068 15.73848981768214
ISS
1 25544U 98067A   99211.44911857  .00021378  00000-0  25848-3 0  8036
2 25544  51.5958 340.1589 0009563 153.0209 207.1393 15.60602175 39356



----
Via the sarex mailing list at AMSAT.ORG courtesy of AMSAT-NA.
To unsubscribe, send "unsubscribe sarex" to Majordomo@amsat.org



AMSAT Top AMSAT Home